Simultaneous Nadir Overpasses (SNOs) Predictions

Prediction of SNOs between LANDSAT-8 and METOP-A Satellite Orbit:

Table of predicted SNOs for the next 14.0 days since TLE Epoch: 7/4/2014
Index Date (LANDSAT-8) Time (LANDSAT-8) Lat,Lon (LANDSAT-8) SZA (LANDSAT-8 ) Date (METOP-A) Time (METOP-A) Lat,Lon (METOP-A) SZA (METOP-A ) Distance(km) Time Diff (sec)
1 07/06/2014 18:44:55 81.07, -62.08 60.42 07/06/2014 18:43:50 81.07, -62.21 60.38 2.34 65
2 07/06/2014 19:34:21 -81.10, 105.93 119.53 07/06/2014 19:34:29 -81.10, 105.82 119.54 1.82 8
3 07/09/2014 14:19:11 81.09, 4.63 60.76 07/09/2014 14:18:14 81.09, 4.72 60.75 1.58 57
4 07/09/2014 15:08:37 -81.11, 172.65 119.18 07/09/2014 15:08:53 -81.12, 172.80 119.16 2.64 16
5 07/12/2014 09:53:28 81.08, 70.89 61.09 07/12/2014 09:52:40 81.08, 70.87 61.07 0.60 48
6
